Location: Hardenberg
(52.5670°N, 6.6170°E)
Time: 06:38:29
(UTC+01:00)

ISS - Visible Passes

Search period start: 11 December 2017 00:00
Search period end: 21 December 2017 00:00
Orbit: 402 x 407 km, 51.6° (Epoch: 11 December)

Date Brightness Start Highest point End Pass type
(mag) Time Alt. Az. Time Alt. Az. Time Alt. Az.
11 Dec -3.1 18:10:56 10° W 18:14:08 50° SSW 18:15:48 24° SE visible
11 Dec -0.4 19:48:00 10° WSW 19:48:28 12° WSW 19:48:28 12° WSW visible
12 Dec -3.4 17:18:40 10° W 17:21:57 63° SSW 17:25:12 10° ESE visible
12 Dec -1.8 18:55:22 10° W 18:58:04 23° SSW 18:58:40 22° SSW visible
13 Dec -2.2 18:02:57 10° W 18:05:58 33° SSW 18:08:57 10° SE visible
14 Dec -2.7 17:10:37 10° W 17:13:48 45° SSW 17:16:57 10° SE visible
14 Dec -0.8 18:47:56 10° WSW 18:49:42 14° SW 18:51:26 10° S visible
15 Dec -1.2 17:55:07 10° W 17:57:38 20° SSW 18:00:10 10° SSE visible
16 Dec -1.7 17:02:36 10° W 17:05:31 29° SSW 17:08:25 10° SE visible
17 Dec -0.4 17:47:54 10° WSW 17:49:10 12° SW 17:50:25 10° SSW visible
